Retour au catalogue

KINEIS-1E

ActifCommunicationsSSO
NORAD 60083·PAYLOAD·🇫🇷 France

Lancé Jun 20, 2024 depuis Rocket Lab Launch Complex 1

Loading…

Prochains Passages (prochaines 24 heures)

TLE

FraisSource: Space-Track

Époque: Sep 14, 2026, 12:10 UTC

1 60083U 24114E   26257.50703825  .00000495  00000-0  70931-4 0  9993
2 60083  97.8935 279.5240 0001146 291.3783  68.7307 14.80770524120602

Suivez KINEIS-1E en temps réel avec AllMySat

Download on the App Store